CAPE
0 0 6 3 0 0 0 0 0 112 232 352 180 195 120 204 67 323 688 2 25 108 206 168 199 310 312 242 177 56 162 348 424 936 659 353 252 186 167 90 90 7 0 0 0 0 0 0 0
0 0 0 0 0 20 0 0 0 52 437 489 330 258 285 161 386 641 532 55 177 180 112 122 345 460 330 239 57 149 401 654 931 474 274 134 50 29 0 0 0 0 0 0 0 0 0 0 0
0 0 0 0 0 0 0 0 0 169 578 524 409 337 352 248 636 884 515 240 345 156 139 376 493 473 319 110 77 519 1012 716 380 200 12 0 0 0 0 0 0 0 0 0 0 0 0 0 0
0 0 0 0 0 0 0 0 0 423 562 515 545 579 571 779 847 898 398 410 353 130 126 413 507 423 212 55 344 920 587 405 237 15 0 0 0 0 0 0 0 0 0 0 0 0 0 0 0
0 0 0 0 0 0 0 0 0 373 607 566 594 660 842 929 951 727 631 484 322 41 168 315 569 413 105 232 849 513 427 267 49 0 0 0 0 0 0 0 0 0 0 0 0 0 0 0 0
0 0 0 0 0 0 0 0 0 437 460 662 764 715 1007 1185 1105 772 636 450 88 45 152 414 601 251 310 781 777 437 176 47 0 0 0 0 0 0 0 0 0 0 0 0 0 0 0 0 0
0 0 0 0 0 0 0 0 7 405 495 913 887 693 1083 1167 1157 871 529 217 72 58 150 307 298 150 692 930 593 232 9 0 0 0 0 0 0 0 0 0 0 0 0 0 0 0 0 0 0
0 0 0 0 0 2 0 183 103 632 840 1162 944 555 892 1035 1110 929 476 153 71 79 109 240 210 100 347 603 340 123 0 0 0 0 0 0 0 0 0 0 0 0 0 0 0 0 0 0 0
0 0 0 0 0 0 0 0 243 109 378 969 893 745 891 1156 1094 708 287 91 78 103 180 270 92 156 173 410 202 0 0 0 0 0 0 0 0 0 0 0 0 0 0 0 0 0 0 0 0
0 0 0 0 0 0 0 0 0 0 32 393 717 1050 1053 1152 974 290 144 104 126 220 272 301 117 140 262 302 104 10 1 0 9 0 0 0 0 0 0 0 0 0 0 0 0 0 0 0 0
0 0 0 0 0 0 0 0 0 0 0 40 425 1085 1206 1263 922 242 149 84 81 177 398 334 275 320 339 163 112 55 7 0 0 0 0 0 0 0 0 0 0 0 0 0 0 0 0 0 0
0 0 0 0 0 0 0 0 0 0 0 114 296 805 1456 1399 1056 484 324 354 197 286 526 486 360 479 484 202 61 69 14 0 0 0 0 0 0 0 0 0 0 0 0 0 0 0 0 0 0
0 0 0 0 0 0 0 0 0 0 0 75 469 1109 1483 1446 1234 808 370 766 678 505 543 589 421 491 534 301 134 70 22 0 0 0 0 0 0 0 0 0 0 0 0 0 0 0 0 0 0
0 0 0 0 0 0 0 0 0 0 8 93 797 1003 1450 1465 1425 1137 744 1006 917 497 583 538 455 449 522 366 215 71 13 0 0 0 0 0 0 0 0 0 0 0 0 0 0 0 0 0 0
0 0 0 0 0 0 0 0 0 0 0 154 820 1263 1448 1570 1550 1460 1089 1198 1197 934 574 556 502 462 543 446 298 81 16 0 0 0 0 0 0 0 0 0 0 0 0 0 0 0 0 0 0
0 0 0 0 0 0 0 0 0 1 65 254 467 1109 1538 1671 1675 1708 1319 1391 1430 1308 854 677 366 456 595 451 330 97 17 0 0 0 0 0 0 0 0 0 0 0 0 0 0 0 0 0 0
0 0 0 0 0 0 0 0 47 347 276 390 1021 1404 1426 1685 1863 1832 1640 1493 1517 1585 1380 820 487 418 590 496 318 25 0 0 0 0 0 0 0 0 0 0 0 0 0 0 0 0 0 0 0
0 0 0 0 0 6 70 208 339 655 399 468 652 887 1308 1527 1619 1815 1842 1458 1616 1675 1437 1247 799 545 487 31 4 3 0 0 0 0 0 0 0 0 0 0 0 0 0 0 0 0 0 0 0
0 0 0 0 0 163 166 309 459 600 643 748 981 887 1061 1415 1458 1337 1548 1454 1527 1654 1467 1389 1011 323 70 0 0 0 0 0 0 0 0 0 0 0 0 0 0 0 0 0 0 0 0 0 0
0 0 0 0 5 227 199 275 329 378 484 813 1120 1283 1416 1151 1377 1406 1146 1205 1397 1639 1646 1359 542 191 79 41 0 0 0 3 2 0 0 0 0 0 0 0 0 0 0 0 0 0 0 0 0
0 0 0 0 0 0 86 297 303 334 412 528 924 1104 1264 1411 1614 1193 1452 1154 1200 1547 1592 880 324 293 185 0 0 0 4 2 2 0 0 0 0 0 0 0 0 0 0 0 0 0 0 0 0
0 0 0 0 0 22 1 147 274 318 276 399 738 1128 1169 1445 1384 1430 1672 1538 1457 1598 1189 442 527 635 196 0 1 0 0 1 0 0 0 0 0 0 0 0 0 0 0 0 0 0 0 0 0
0 0 0 0 0 0 0 7 179 249 218 333 675 1170 1249 1563 1551 1512 1525 1576 1467 1077 437 551 935 970 131 0 2 3 2 0 0 0 0 0 0 0 0 0 0 0 0 0 0 0 0 0 0
0 0 0 0 0 16 0 0 76 195 172 337 501 1077 1262 1456 1488 1403 1367 1119 1214 1236 876 854 888 984 336 13 3 3 4 3 0 1 0 0 0 0 0 0 0 0 0 0 0 0 0 0 0
0 0 21 18 24 27 0 0 146 34 130 206 222 857 1229 1387 1433 1510 1305 1495 1579 1612 922 850 740 825 773 66 2 4 4 3 3 0 0 0 0 0 0 0 0 0 0 0 0 0 0 0 0
0 0 2 11 14 21 0 17 148 17 93 137 243 959 1351 1635 1484 1511 1468 1678 1615 1551 1259 1246 743 745 968 405 54 14 11 6 0 0 0 0 0 0 0 0 0 0 0 0 0 0 0 0 0
0 1 0 0 0 0 3 0 0 0 0 3 56 738 1009 1373 1411 1523 1485 1471 1523 1526 1460 1707 1449 1018 854 607 493 56 29 7 2 0 0 0 0 0 0 0 0 0 0 0 0 0 0 0 0
0 0 0 7 0 2 1 0 5 0 0 0 0 288 782 765 1391 1357 1413 1527 1572 1655 1598 1631 1355 1173 1020 875 467 203 14 4 1 0 0 0 0 0 0 0 0 0 0 0 0 0 0 0 0
0 0 0 0 0 0 0 1 0 0 0 0 0 176 559 491 704 1084 1074 1190 1209 1141 1177 1383 1381 1135 858 659 614 366 22 4 2 0 0 0 0 0 0 0 0 0 0 0 0 0 2 0 5
0 0 0 0 0 0 0 0 0 0 0 15 0 81 447 617 616 506 378 387 344 391 653 1069 1440 1450 900 725 683 368 17 4 3 0 0 0 0 0 0 0 0 0 0 0 0 0 8 15 11
CIN
0 0 -97 -146 0 0 0 0 0 -65 -27 -16 -42 -6 0 -5 -9 -3 -35 -6 -54 -10 -19 -39 -54 -36 -30 -45 -64 -99 -65 -28 -15 0 -5 -45 -66 -88 -100 -131 -135 -25 0 0 0 0 0 0 0
0 0 0 0 0 -4 0 0 0 -57 -24 -27 -49 -31 -1 -8 -35 -72 -33 -85 -31 -19 -37 -33 -30 -13 -22 -33 -101 -69 -20 -6 0 -20 -64 -136 -92 -107 0 0 0 0 0 0 0 0 0 0 0
0 0 0 0 0 0 0 0 0 -55 -35 -32 -32 -50 -20 -29 -53 -34 -47 -64 -25 -40 -20 -15 -16 -13 -14 -54 -63 -1 0 -3 -38 -102 -61 0 0 0 0 0 0 0 0 0 0 0 0 0 0
0 0 0 0 0 0 0 0 0 -28 -45 -42 -25 -7 -77 -84 -46 -32 -84 -49 -35 -53 -15 -27 -15 -24 -52 -111 -30 -1 -16 -25 -66 -70 0 0 0 0 0 0 0 0 0 0 0 0 0 0 0
0 0 0 0 0 0 0 0 0 -32 -31 -12 -28 -20 -46 -80 -66 -68 -55 -28 -30 -69 -15 -34 -28 -36 -90 -57 -1 -25 -56 -87 -182 0 0 0 0 0 0 0 0 0 0 0 0 0 0 0 0
0 0 0 0 0 0 0 0 0 -33 -19 -26 -30 -29 -50 -91 -63 -69 -44 -35 -77 -71 -20 -11 -16 -56 -51 0 -5 -40 -116 -207 0 0 0 0 0 0 0 0 0 0 0 0 0 0 0 0 0
0 0 0 0 0 0 0 0 -47 -35 -27 -12 -29 -3 -75 -92 -63 -62 -74 -80 -121 -84 -45 -7 -24 -93 -5 -2 -15 -78 -69 0 0 0 0 0 0 0 0 0 0 0 0 0 0 0 0 0 0
0 0 0 0 0 -2 0 -43 -63 -36 -7 -49 -41 -6 -24 -98 -94 -78 -107 -135 -136 -104 -82 -35 -41 -106 -26 -18 -59 -165 0 0 0 0 0 0 0 0 0 0 0 0 0 0 0 0 0 0 0
0 0 0 0 0 0 0 0 -48 -95 -52 -45 -50 -68 -78 -148 -136 -139 -173 -192 -159 -131 -78 -41 -97 -53 -39 -16 -115 0 0 0 0 0 0 0 0 0 0 0 0 0 0 0 0 0 0 0 0
0 0 0 0 0 0 0 0 0 0 -53 -39 -54 -112 -147 -184 -171 -216 -211 -209 -185 -142 -81 -55 -119 -75 -36 -54 -170 -121 -17 -21 -138 0 0 0 0 0 0 0 0 0 0 0 0 0 0 0 0
0 0 0 0 0 0 0 0 0 0 0 -27 -20 -67 -168 -180 -180 -194 -196 -210 -222 -196 -100 -88 -124 -97 -74 -122 -173 -175 -248 0 0 0 0 0 0 0 0 0 0 0 0 0 0 0 0 0 0
0 0 0 0 0 0 0 0 0 0 0 -86 -58 -49 -144 -141 -151 -179 -200 -180 -219 -213 -135 -130 -142 -99 -70 -116 -169 -176 -222 0 0 0 0 0 0 0 0 0 0 0 0 0 0 0 0 0 0
0 0 0 0 0 0 0 0 0 0 0 -80 -112 -72 -119 -121 -136 -145 -196 -137 -143 -163 -157 -120 -136 -96 -69 -104 -132 -160 -229 0 0 0 0 0 0 0 0 0 0 0 0 0 0 0 0 0 0
0 0 0 0 0 0 0 0 0 0 -45 -78 -98 -77 -93 -88 -75 -83 -127 -91 -102 -147 -145 -134 -163 -119 -68 -69 -108 -187 -262 0 0 0 0 0 0 0 0 0 0 0 0 0 0 0 0 0 0
0 0 0 0 0 0 0 0 0 0 0 -63 -88 -82 -80 -99 -91 -94 -119 -100 -82 -94 -152 -163 -156 -112 -91 -82 -80 -153 -251 0 0 0 0 0 0 0 0 0 0 0 0 0 0 0 0 0 0
0 0 0 0 0 0 0 0 0 -6 -75 -32 -44 -98 -133 -103 -75 -80 -125 -99 -94 -86 -133 -150 -187 -150 -112 -100 -100 -160 -281 0 0 0 0 0 0 0 0 0 0 0 0 0 0 0 0 0 0
0 0 0 0 0 0 0 0 -87 -86 -73 -46 -68 -115 -152 -147 -123 -102 -116 -119 -120 -105 -99 -135 -143 -135 -85 -76 -97 -261 0 0 0 0 0 0 0 0 0 0 0 0 0 0 0 0 0 0 0
0 0 0 0 0 -60 -31 -22 -64 -98 -110 -100 -83 -111 -143 -172 -171 -150 -117 -127 -115 -103 -145 -186 -152 -99 -113 -301 -57 0 0 0 0 0 0 0 0 0 0 0 0 0 0 0 0 0 0 0 0
0 0 0 0 0 -10 -19 -39 -66 -72 -76 -87 -93 -94 -102 -153 -217 -233 -148 -111 -96 -77 -102 -75 -69 -266 -363 0 0 0 0 0 0 0 0 0 0 0 0 0 0 0 0 0 0 0 0 0 0
0 0 0 0 -42 -11 -22 -38 -83 -97 -119 -109 -105 -107 -109 -118 -196 -262 -238 -165 -126 -92 -73 -74 -281 -457 -518 -403 0 0 0 0 0 0 0 0 0 0 0 0 0 0 0 0 0 0 0 0 0
0 0 0 0 0 0 -29 -17 -47 -67 -90 -91 -105 -137 -161 -170 -158 -214 -205 -193 -135 -98 -111 -283 -451 -410 -386 0 0 0 0 0 0 0 0 0 0 0 0 0 0 0 0 0 0 0 0 0 0
0 0 0 0 0 -5 -34 -6 -20 -31 -50 -82 -95 -117 -167 -191 -228 -207 -134 -123 -93 -58 -158 -372 -236 -134 -264 0 0 0 0 0 0 0 0 0 0 0 0 0 0 0 0 0 0 0 0 0 0
0 0 0 0 0 0 0 -9 -6 -14 -19 -59 -87 -92 -122 -140 -174 -181 -134 -99 -106 -157 -360 -256 -67 -28 -290 0 0 0 0 0 0 0 0 0 0 0 0 0 0 0 0 0 0 0 0 0 0
0 0 0 0 0 -5 0 0 -23 -5 -28 -49 -64 -63 -88 -102 -142 -156 -147 -166 -114 -86 -135 -105 -61 -24 -153 -381 0 0 0 0 0 0 0 0 0 0 0 0 0 0 0 0 0 0 0 0 0
0 0 -6 -3 -3 -4 0 0 -15 -23 -39 -46 -68 -35 -53 -103 -125 -121 -151 -85 -56 -34 -118 -112 -112 -55 -35 -292 0 0 0 0 0 0 0 0 0 0 0 0 0 0 0 0 0 0 0 0 0
0 0 -3 -3 -2 -3 0 -3 -6 -28 -41 -48 -58 -30 -58 -64 -121 -123 -108 -48 -41 -37 -45 -35 -115 -91 -19 -115 -301 -291 -315 0 0 0 0 0 0 0 0 0 0 0 0 0 0 0 0 0 0
-1 -1 0 0 0 0 -1 0 0 0 0 -52 -50 -29 -37 -65 -104 -100 -100 -82 -48 -38 -28 -1 -2 -30 -37 -60 -56 -296 -287 0 0 0 0 0 0 0 0 0 0 0 0 0 0 0 0 0 0
0 0 0 -2 0 -1 -2 0 -3 0 0 0 -3 -28 -47 -68 -61 -101 -116 -92 -77 -57 -31 -21 -25 -25 -26 -25 -90 -208 -407 0 0 0 0 0 0 0 0 0 0 0 0 0 0 0 0 0 0
0 0 0 0 0 0 0 -2 0 0 0 0 0 -20 -37 -66 -91 -102 -112 -108 -100 -87 -67 -52 -51 -69 -86 -106 -82 -156 -408 0 0 0 0 0 0 0 0 0 0 0 0 0 0 0 -1 0 -2
0 0 0 0 0 0 0 0 0 0 0 -78 0 -45 -28 -77 -102 -105 -106 -123 -133 -113 -91 -74 -50 -28 -88 -89 -68 -161 -370 0 0 0 0 0 0 0 0 0 0 0 0 0 0 0 -1 -1 -1
Wind_Speed
11 12 14 12 12 14 18 18 15 16 17 19 19 18 18 16 17 16 13 13 16 15 12 13 12 11 11 12 13 14 14 15 16 16 15 16 16 17 18 19 20 20 21 22 22 23 23 23 23
10 12 13 10 13 13 17 18 14 17 16 17 18 18 11 19 19 16 15 17 17 14 14 14 13 12 13 13 13 14 14 15 14 14 15 16 17 18 18 19 20 21 22 22 23 23 24 23 23
9 12 12 9 13 16 17 18 17 15 15 16 18 18 21 20 18 15 12 20 18 16 16 14 14 14 14 14 14 14 14 13 14 14 15 16 17 18 19 20 21 22 22 23 23 24 24 23 24
9 10 11 12 12 14 16 18 16 14 15 15 19 18 20 19 17 14 18 20 18 17 17 15 15 15 15 15 15 15 14 14 14 15 15 16 17 18 20 21 22 23 23 24 25 25 25 24 23
8 10 8 9 11 12 14 16 14 12 16 15 15 18 19 20 17 16 17 19 17 17 16 17 16 16 15 15 15 13 14 14 14 14 15 16 18 19 20 21 22 23 24 25 25 24 25 24 23
7 11 9 10 11 12 15 15 12 10 14 16 16 16 18 17 17 17 16 16 17 16 16 15 16 16 15 15 13 13 14 14 14 14 15 16 18 19 20 21 22 23 25 25 24 24 24 24 24
12 6 6 9 11 14 16 14 11 12 11 15 16 16 17 16 17 17 16 16 16 15 15 16 15 15 14 13 13 13 14 14 14 15 16 16 17 18 19 21 22 23 24 24 24 24 24 24 24
8 7 7 9 10 14 15 14 14 12 12 15 14 16 16 13 17 17 16 15 15 15 15 14 14 15 15 14 13 13 13 13 14 15 16 16 17 18 18 19 22 22 23 23 23 23 24 23 24
10 8 9 9 10 12 15 16 14 15 12 10 12 14 16 17 17 17 16 16 15 14 14 13 15 14 14 13 12 12 12 12 13 14 15 15 16 17 18 20 21 21 22 23 23 23 23 20 23
10 7 8 10 10 10 18 17 18 15 12 8 12 14 14 15 14 13 14 12 14 15 15 15 15 15 13 12 12 10 11 12 12 14 15 16 16 17 18 18 19 19 20 21 21 22 22 22 23
9 7 7 7 8 19 21 19 18 20 18 13 10 10 12 12 12 12 12 12 12 15 15 17 16 17 16 14 11 11 11 12 13 14 15 16 14 15 17 18 18 18 18 19 19 21 23 23 23
9 7 5 6 7 10 17 21 22 19 21 18 14 9 9 10 10 11 11 10 12 13 15 19 19 18 16 11 11 10 11 12 13 15 15 15 15 16 19 19 19 19 19 18 19 20 21 22 23
8 10 7 4 4 4 6 11 24 24 22 19 16 8 7 8 9 11 12 11 12 14 14 16 17 14 12 9 8 9 11 13 15 15 15 15 15 17 18 18 19 19 18 17 17 19 20 20 22
12 12 9 7 4 3 3 5 13 14 19 7 10 8 7 7 7 7 7 8 10 11 13 14 14 10 8 7 8 9 12 14 15 16 17 16 16 16 18 18 19 18 17 16 16 17 18 19 20
13 13 10 8 9 6 5 3 3 17 21 7 7 8 9 7 8 5 6 8 10 9 10 12 8 6 4 6 8 11 13 14 17 19 17 17 17 17 18 19 18 17 16 15 15 15 16 17 18
12 12 9 13 15 11 6 2 8 19 21 6 7 10 9 8 6 5 4 5 7 10 11 11 10 4 4 6 8 11 14 16 17 18 16 16 17 18 19 19 19 17 15 14 14 14 15 16 16
11 12 13 13 18 13 9 12 25 23 19 13 13 13 9 8 7 5 4 4 5 7 8 7 8 6 4 10 12 14 16 17 17 19 18 16 16 17 19 19 19 17 15 15 14 14 14 14 14
14 12 12 15 16 16 16 19 21 18 16 16 13 12 7 7 5 4 3 3 2 3 3 4 5 4 7 12 16 20 19 17 16 17 18 16 15 17 19 19 18 17 15 14 14 14 14 14 13
15 13 13 14 13 17 18 20 20 19 17 17 18 17 13 5 8 6 2 1 1 1 1 3 4 5 5 8 13 21 21 18 16 15 15 14 15 16 17 18 17 17 15 15 14 14 14 13 13
14 13 13 15 14 15 16 17 18 20 20 19 19 18 19 20 9 8 9 4 1 1 0 1 2 1 1 3 6 17 13 19 18 16 15 15 14 16 16 17 17 17 15 14 14 14 14 15 12
15 15 14 14 11 13 11 14 16 18 20 20 20 21 22 22 21 10 9 6 7 5 2 2 2 2 0 3 10 15 11 14 15 17 15 17 14 14 15 16 17 15 16 14 14 14 15 16 14
15 15 13 11 9 11 13 12 13 16 19 21 22 22 24 24 22 19 15 12 9 6 4 4 3 3 4 7 9 8 5 7 7 9 17 16 14 11 13 14 15 15 16 15 14 14 15 16 16
17 13 11 11 10 8 15 8 12 15 19 21 22 22 23 23 23 21 18 14 14 12 8 7 7 6 9 8 9 7 5 7 7 4 5 12 13 12 10 11 12 14 15 15 16 14 16 15 17
13 12 12 11 12 12 15 12 11 15 18 21 22 22 21 22 22 21 20 17 15 11 9 7 6 6 10 9 8 6 4 7 11 11 13 6 4 7 7 8 10 12 14 13 14 15 15 17 17
12 11 9 12 13 15 15 9 17 16 17 20 21 21 21 21 21 22 20 18 16 13 13 11 7 5 10 10 9 6 4 5 7 7 8 5 3 3 6 6 9 10 12 13 14 14 15 15 16
12 13 14 12 12 16 13 12 14 13 14 17 18 19 20 20 20 21 21 19 18 14 13 14 9 7 8 9 8 7 5 3 4 6 4 3 1 2 3 4 6 9 10 13 13 13 14 15 14
13 12 16 14 11 7 14 12 10 12 11 12 15 16 18 18 18 19 19 18 18 15 12 12 10 7 7 7 8 7 4 2 0 2 2 2 2 3 2 3 5 6 9 11 13 13 13 13 14
16 15 11 10 15 14 13 12 10 10 10 10 11 13 15 16 16 17 18 17 16 15 15 16 15 12 11 9 8 8 5 3 1 0 2 3 2 2 1 2 2 7 9 10 11 12 11 12 12
13 10 13 16 19 23 19 17 12 10 9 7 8 11 12 13 14 15 16 16 16 17 17 17 15 14 13 11 9 8 7 6 3 1 4 4 3 3 3 3 2 6 8 11 13 13 13 12 12
15 15 14 21 18 18 24 27 14 13 11 9 10 11 12 12 12 13 15 17 18 19 19 16 16 15 14 12 12 10 9 7 5 2 2 2 3 4 5 4 5 5 6 8 13 16 16 14 12
Wind_Direction
49 50 24 49 133 101 26 59 77 82 77 50 61 66 355 324 299 342 59 62 93 90 83 88 81 70 62 59 58 53 50 51 49 42 31 27 20 18 17 14 13 8 1 360 357 351 344 342 343
23 20 20 92 151 68 23 26 62 40 15 74 56 77 39 355 1 27 64 96 98 84 88 90 85 75 70 66 58 60 59 54 45 34 26 24 25 23 19 19 17 17 13 7 358 351 346 353 352
33 359 22 230 109 18 8 16 12 30 36 45 29 56 32 17 22 45 48 100 94 90 92 85 89 79 73 68 66 64 56 45 39 36 32 27 24 22 22 22 22 20 13 8 4 354 356 359 353
39 22 21 140 40 22 16 360 21 47 44 60 25 18 43 357 50 43 86 100 94 95 97 89 91 88 85 79 81 73 55 48 44 41 36 31 25 22 19 19 16 10 9 8 359 356 358 355 354
97 358 81 91 40 26 14 8 23 47 16 37 63 7 25 35 45 67 84 101 96 98 93 100 98 94 87 88 83 61 59 53 43 37 31 24 18 13 14 16 10 1 357 353 352 360 1 356 1
97 340 115 130 43 23 5 356 22 37 4 12 21 24 18 46 72 77 86 93 97 95 96 92 97 95 91 87 69 64 57 50 47 42 27 20 16 14 16 9 2 355 354 356 4 5 2 2 3
144 96 89 65 62 30 3 15 56 17 32 358 343 356 14 65 76 85 91 93 96 96 95 101 99 94 91 78 74 66 62 57 48 39 25 19 18 19 15 9 359 355 2 3 5 2 359 0 356
56 53 98 88 77 21 18 28 20 49 27 353 81 356 9 74 89 88 94 91 98 100 100 98 95 102 101 90 79 70 60 53 43 28 24 25 22 20 18 25 6 7 5 7 5 3 8 10 5
77 86 116 76 86 33 20 11 30 352 23 54 52 38 12 93 98 95 96 102 103 103 105 99 104 103 103 87 76 69 55 47 40 33 29 28 10 10 8 1 7 13 10 11 10 9 14 32 27
101 92 90 31 63 48 316 330 312 331 357 72 96 37 57 87 96 90 99 96 107 114 113 113 110 107 95 84 85 63 49 34 33 31 27 18 13 2 358 1 5 8 13 18 18 21 17 14 14
74 74 66 92 38 245 298 309 300 288 288 204 36 52 75 84 93 95 98 97 105 117 113 124 117 123 118 104 86 70 51 35 29 29 26 24 27 13 360 349 351 2 10 7 18 10 4 9 17
60 57 52 44 29 354 323 284 282 247 252 281 339 45 72 83 99 101 99 85 104 114 123 135 131 129 127 87 92 51 31 29 27 19 26 31 32 10 345 339 339 341 349 4 6 8 13 16 19
50 32 31 56 51 81 30 355 267 260 262 277 326 26 64 84 94 109 104 91 101 116 119 128 132 122 112 84 44 31 15 10 3 16 26 40 39 29 359 341 332 339 350 5 5 10 12 24 23
19 10 16 20 35 71 89 63 335 337 290 40 360 18 45 59 54 59 70 80 96 102 118 123 130 110 93 79 19 18 1 356 0 4 9 21 22 24 2 346 339 350 353 359 12 11 17 24 26
6 4 21 33 18 29 42 108 78 333 310 53 48 22 17 53 78 66 92 92 96 96 108 124 105 92 50 9 2 350 338 348 344 342 356 357 360 2 355 344 346 350 354 359 2 14 19 24 26
9 13 43 17 5 13 72 124 12 331 309 79 55 8 10 44 77 67 58 89 93 107 122 126 118 96 350 344 347 340 331 332 331 342 359 355 353 351 348 350 345 344 355 5 11 20 15 17 24
61 38 32 28 4 24 30 327 315 312 319 334 353 345 360 24 59 63 80 111 115 109 105 105 116 103 25 328 329 326 323 320 324 323 340 347 347 348 344 341 344 345 347 355 4 10 10 14 22
44 36 37 11 4 9 0 344 339 340 331 325 342 344 7 10 32 58 92 120 120 112 113 116 117 61 19 334 330 326 317 314 318 321 328 336 345 342 337 344 342 340 346 355 358 4 7 12 20
48 47 24 8 19 2 358 357 358 4 3 351 337 326 341 34 360 342 36 91 324 321 315 37 52 39 33 9 345 320 302 300 302 310 324 330 334 340 341 342 343 340 348 346 359 5 9 14 15
69 70 46 22 19 9 11 12 8 5 3 359 345 329 314 315 9 3 327 315 267 276 257 29 73 109 282 329 1 354 331 291 288 290 305 315 326 328 342 344 348 344 354 354 355 354 358 1 10
66 64 62 27 32 13 14 16 10 2 7 1 354 347 343 333 316 352 2 342 314 304 272 232 214 236 300 5 349 1 29 333 287 288 289 295 317 326 338 346 346 355 352 358 357 358 353 351 357
67 73 70 71 97 34 21 4 13 360 355 350 344 341 343 342 339 343 335 326 327 335 320 310 326 358 5 2 6 18 34 20 340 286 276 286 307 337 345 351 359 357 356 356 357 356 355 352 354
36 84 94 71 79 72 27 33 26 9 351 346 343 340 347 353 1 5 5 357 327 330 342 341 341 357 357 3 6 29 62 63 82 18 266 284 301 318 350 12 11 2 3 359 355 357 351 356 349
67 73 92 104 94 110 27 30 34 13 357 353 351 350 356 1 5 14 20 26 40 52 44 36 33 13 357 9 18 37 76 95 105 116 140 118 94 337 2 25 27 12 6 11 8 1 359 353 352
85 79 83 84 87 64 45 97 12 20 17 0 1 360 4 8 12 14 16 17 21 34 23 27 46 29 1 7 10 27 72 116 137 130 139 122 110 360 351 27 14 17 9 7 3 2 0 4 358
30 35 22 48 57 37 56 88 52 37 36 27 20 9 7 18 17 23 28 31 27 42 46 22 37 27 6 6 12 13 38 124 142 144 141 144 104 1 21 50 29 10 7 358 1 3 1 5 10
18 24 3 0 25 98 27 54 81 85 77 67 55 46 36 27 33 26 22 27 29 42 49 40 46 56 44 27 18 28 43 43 308 184 201 218 310 338 10 18 353 9 357 350 352 356 1 6 9
341 354 18 24 353 357 10 15 39 92 93 77 77 54 41 31 36 33 32 35 39 40 36 27 26 31 28 27 26 10 21 29 21 254 217 221 265 299 313 124 63 344 347 343 344 349 356 353 2
356 4 353 341 328 318 330 343 3 17 31 56 54 38 37 32 28 28 28 30 31 21 17 18 23 24 21 26 26 24 24 25 31 176 188 203 218 251 276 294 325 337 334 332 330 334 343 343 348
331 334 339 322 335 330 310 306 343 342 354 3 359 4 7 11 21 21 20 16 10 9 12 17 18 17 19 22 18 17 20 27 35 65 173 203 247 273 284 293 306 318 327 340 326 322 322 329 335